www.pogodaiklimat.ru

Погода и климат >> Архив погоды >> Пакистан >> Lahore City


ПОГОДА в Lahore City

  • Прогноз погоды в Lahore City
  • Монитор погоды в Lahore City
  • Климат города

АРХИВ ПОГОДЫ в Lahore City

Время (UTC), дата Ветер
(напр.,м/с)
 
Видим.   Явления Облачность Т
(С)
Тd
(С)
f
(%)
Тe
(С)
Тes
(С)
Комфортность P
(гПа)
Po
(гПа)
Тmin
(С)
Tmax
(С)
R
(мм)
R24
(мм)
S
(см)
21 8.12 штиль 0 2000 м дым ясно +12.0 +7.9 76 +12 +12 1016.9 989.4
00 9.12 штиль 0 2000 м дымка ясно +11.0 +9.0 87 +10 +10 1016.1 990.5
03 9.12 штиль 0 1000 м дымка ясно +10.0 +7.9 87 +9 +10 1016.9 991.2 +9.7
06 9.12 штиль 0 2000 м дым 3/0
[Ac trans]
+18.0 +10.6 62 +18 +25 1017.0 992.0
09 9.12 З 1 2000 м дым 3/0
[Ac trans]
+21.0 +11.1 53 +25 +30 комфорт 1014.8 1000.0
12 9.12 штиль 0 2000 м дым 4/0
[Ac trans]
+20.0 +10.9 56 +21 +21 комфорт 1013.2 988.4 +22.0
15 9.12 штиль 0 2000 м дым 6/0
[Ac trans]
+15.5 +9.8 69 +15 +15 1014.2 984.9
18 9.12 штиль 0 2000 м дым ясно +14.5 +10.7 78 +14 +14 1014.3 989.0
21 9.12 штиль 0 2000 м дым ясно +13.0 +9.1 77 +13 +13 1013.9 1000.0
00 10.12 штиль 0 2000 м в посл. час морось 9/9 300 м
[Sc As op]
+12.0 +9.0 82 +11 +11 1014.7 989.2 0.0
03 10.12 штиль 0 1000 м в посл. час морось 10/5 1200 м
[Sc As op]
+14.0 +12.2 89 +14 +14 1015.3 989.9 +9.8 0.2
06 10.12 С 1 1000 м слабая морось 10/4 1200 м
[Sc As op]
+15.0 +11.3 79 +16 +16 1016.8 991.5 0.0
09 10.12 С 1 1000 м дым {морось} 9/9 300 м
[Sc As op]
+16.5 +10.9 69 +18 +19 1014.6 1000.0 0.0
12 10.12 штиль 0 2000 м в посл. час морось 9/4 1200 м
[Sc As op]
+17.0 +11.5 70 +17 +17 1014.5 1002.8 +17.6 0.0
15 10.12 С 2 2000 м дымка {дождь} 9/9 300 м
[Sc As op]
+15.0 +12.3 84 +15 +15 1016.2 1000.0 5
18 10.12 штиль 0 2000 м дымка 3/0
[Ac trans]
+13.0 +11.1 88 +12 +12 1017.1 991.6
21 10.12 штиль 0 2000 м дымка 6/4 300 м
[Sc Ac trans]
+11.5 +9.5 88 +11 +11 1016.2 989.4
00 11.12 штиль 0 1000 м дымка 6/4 300 м
[Sc Ac trans]
+11.0 +9.0 87 +10 +10 1016.0 990.4
03 11.12 штиль 0 1000 м дымка 3/0
[Ac trans]
+10.5 +7.4 81 +10 +11 1017.4 991.7 +10.1
06 11.12 С 1 4000 м дым 4/0
[Ac trans]
+17.0 +9.4 61 +18 +24 1017.6 992.5
09 11.12 С 1 4000 м дым 3/0
[Ac trans]
+20.0 +9.8 52 +22 +27 комфорт 1015.4 1000.0
12 11.12 С 1 4000 м дым ясно +18.0 +11.7 67 +19 +19 1014.9 1002.6 +21.0
15 11.12 З 2 4000 м дым 3/0
[Ac trans]
+16.0 +10.4 69 +16 +16 1016.2 1000.0
18 11.12 штиль 0 4000 м дым 1/0
[Ac trans]
+14.0 +9.1 72 +14 +14 1017.1 991.7
21 11.12 штиль 0 2000 м дым {дождь} 8/5 300 м
[Sc Ac As]
+13.0 +8.0 72 +13 +13 1016.9 989.6
00 12.12 штиль 0 2000 м дым {дождь} 8/4 1200 м
[Sc Ac As]
+12.0 +7.9 76 +12 +12 1016.3 990.8
03 12.12 С 2 2000 м дымка {дождь} 9/6 300 м
[Sc Ac As]
+12.0 +9.0 82 +11 +11 1017.7 992.2 +10.5 0.0
06 12.12 ЮВ 1 4000 м дым 6/5 300 м
[Sc Ac trans]
+15.5 +10.8 74 +16 +20 1020.1 994.7
09 12.12 В 1 4000 м дым 8/4 300 м
[Sc Ac trans]
+16.5 +10.9 69 +18 +20 1018.6 1000.0
12 12.12 штиль 0 2000 м дым 5/4 300 м
[Sc Ac trans]
+16.5 +12.0 75 +16 +16 1018.2 992.9 +17.5
15 12.12 штиль 0 2000 м дымка ясно +13.5 +10.6 83 +13 +13 1020.2 1000.0
18 12.12 штиль 0 2000 м дымка ясно +12.5 +9.6 82 +12 +12 1020.9 995.2
21 12.12 штиль 0 2000 м дымка ясно +11.5 +9.5 88 +11 +11 1020.7 1000.0
00 13.12 штиль 0 2000 м дымка ясно +10.0 +7.9 87 +9 +9 1021.1 995.2
03 13.12 штиль 0 2000 м дымка ясно +9.0 +6.9 87 +8 +9 1022.5 996.5 +8.5
06 13.12 З 1 4000 м дым ясно +15.5 +8.7 64 +17 +25 1023.2 997.7
09 13.12 С 1 4000 м дым ясно +18.5 +9.0 54 +20 +26 1021.2 1000.0
12 13.12 С 1 4000 м дым 5/4 300 м
[Sc Ac trans]
+17.5 +8.9 57 +19 +19 1020.6 995.4 +20.1
15 13.12 штиль 0 2000 м дым ясно +15.0 +9.2 68 +15 +15 1021.8 1000.0
18 13.12 штиль 0 4000 м дым ясно +13.5 +9.6 77 +13 +13 1022.8 997.2
21 13.12 штиль 0 4000 м дым ясно +12.0 +9.0 82 +11 +11 1022.3 1000.0
00 14.12 штиль 0 2000 м дымка ясно +10.5 +8.5 87 +10 +10 1023.1 997.2
03 14.12 штиль 0 2000 м дымка ясно +10.5 +7.4 81 +10 +11 1024.4 998.4 +8.7
06 14.12 З 2 4000 м дым ясно +16.5 +7.6 56 +17 +24 1024.9 999.5
09 14.12 З 2 4000 м мгла ясно +20.0 +8.6 48 +22 +27 комфорт 1023.4 1000.0
12 14.12 З 1 4000 м дым ясно +18.5 +10.1 58 +21 +21 комфорт 1022.8 997.7 +21.1
15 14.12 штиль 0 4000 м дым ясно +15.0 +9.2 68 +15 +15 1024.4 1000.0
18 14.12 штиль 0 2000 м дым ясно +13.0 +9.1 77 +13 +13 1024.2 998.4
21 14.12 штиль 0 2000 м дым ясно +12.0 +7.9 76 +12 +12 1023.5 1000.0
00 15.12 штиль 0 2000 м дым ясно +11.0 +6.8 75 +10 +10 1023.3 997.4
03 15.12 штиль 0 2000 м дымка ясно +8.0 +5.8 86 +7 +8 1024.3 998.1 +7.9
06 15.12 З 2 4000 м дым ясно +16.5 +6.3 51 +17 +23 1024.4 999.0
09 15.12 З 1 4000 м мгла ясно +21.0 +6.2 38 +23 +29 комфорт 1022.7 1000.0
12 15.12 штиль 0 4000 м мгла ясно +19.0 +7.2 46 +19 +19 1021.9 996.8 +22.1
15 15.12 штиль 0 4000 м дым ясно +14.5 +7.4 62 +14 +14 1023.7 1000.0

 

Местоположение метеостанции Lahore City (Пакистан): широта 31.55 долгота 74.33 высота над уровнем моря 215 м.

В архиве по умолчанию представлена погода в Lahore City за последнюю неделю. Архивные данные за месяц целиком и за предыдущие месяцы, начиная с января 2011 года, Вы можете получить, выбрав интересующий диапазон дат из раскрывающегося списка и нажав кнопку "Ввод!".


*Определитесь, кто Вы:
робот инопланетянин человек

Внимание! Время в таблицах - всемирное. Для получения местного времени необходимо прибавить поправку, которая в Lahore City равна 5 ч.

Смотрите также архив погоды в соседних городах и на ближайших метеорологических станциях:

Погода в Amritsar (Punjab, Индия) (52 км)
Погода в Sialkot (Пакистан) (107 км)
Погода в Faisal Abad (Пакистан) (117 км)
Погода в Jammu (Jammu and Kashmir, Индия) (133 км)
Погода в Jhelum (Пакистан) (164 км)
Погода в Sargodha (Пакистан) (166 км)
Погода в Katra (Jammu and Kashmir, Индия) (170 км)
Погода в Ludhiana (Punjab, Индия) (170 км)
Погода в Una (Himachal Pradesh, Индия) (184 км)
Погода в Sri Ganganagar (Rajasthan, Индия) (185 км)

Пояснения к столбцам:

Ветер - указаны скорость ветра в м/с - средняя за 10 мин, порывы в срок и между сроками (в фигурных скобках) и направление, откуда дует ветер: С - северный, СВ - северо-восточный, В - восточный, ЮВ - юго-восточный, Ю - южный, ЮЗ - юго-западный, З - западный, СЗ - северо-западный.
Видимость - горизонтальная дальность видимости в метрах или километрах. При видимости от 1 до 10 км при отсутствии осадков обычно наблюдается дымка, при ухудшении видимости до 1 км и менее - туман. В сухую погоду видимость может ухудшаться дымом, пылью или мглою.
Явления - указаны атмосферные явления, наблюдавшиеся в срок или в последний час перед сроком; фигурными скобками обозначены явления, наблюдавшиеся между сроками (за 1-3 часа до срока); квадратными скобками обозначены град или гололедные отложения с указанием их диаметра в мм.
Облачность - указаны через наклонную черту общая и нижняя облачность в баллах и высота нижней границы облаков в метрах; квадратными скобками обозначены формы облаков: Ci - перистые, Cs - перисто-слоистые, Cc - перисто-кучевые, Ac - высококучевые, As - высокослоистые, Sc - слоисто-кучевые, Ns - слоисто-дождевые, Cu - кучевые, Cb - кучево-дождевые. Подробнее классификацию облаков см. в Атласе облаков (PDF).
T - Температура воздуха - температура, измеренная на высоте 2 м над землей.
Td - Температура точки росы - температура, при понижении до которой содержащийся в воздухе водяной пар достигнет насыщения.
f - Относительная влажность воздуха - влажноcть воздуха, измеренная на высоте 2 м над землей.
Te - Эффективная температура - температура, которую ощущает одетый по сезону человек в тени. Характеристика душности погоды. При расчете учитывается влияние влажности воздуха и скорости ветра на теплоощущения человека.
Tes - Эффективная температура на солнце - температура, которую ощущает человек, с поправкой на солнечный нагрев. Характеристика знойности погоды. Зависит от высоты солнца над горизонтом, облачности и скорости ветра. Ночью, в пасмурную погоду, а также при ветре 12 м/с и более поправка равна нулю.
P - Атмосферное давление - приведенное к уровню моря атмосферное давление.
Po - Атмосферное давление - измеренное на уровне метеостанции атмосферное давление.
Tmin - Минимальная температура - минимум температуры воздуха на высоте 2 м над землей.
Tmax - Максимальная температура - максимум температуры воздуха на высоте 2 м над землей.
R - Количество осадков - Количество выпавших осадков за период времени, мм. При наведении курсора мыши на число - период времени, за который выпало указанное количество осадков.
R24 - Количество осадков - Количество выпавших осадков за 24 часа, мм.
S - Снежный покров - Высота снежного покрова, см. При наведении курсора мыши на число - состояние снежного покрова и степень покрытия местности в баллах.